Year,Month,Day,Hour,Minute,Value (Times are PST for windspeed in km/hr)
2017,05,14,00,00,3.30
2017,05,14,00,01,3.50
2017,05,14,00,02,4.50
2017,05,14,00,03,2.40
2017,05,14,00,04,3.40
2017,05,14,00,05,2.80
2017,05,14,00,06,3.00
2017,05,14,00,07,2.00
2017,05,14,00,08,2.20
2017,05,14,00,09,1.60
2017,05,14,00,10,2.80
2017,05,14,00,11,2.50
2017,05,14,00,12,2.70
2017,05,14,00,13,4.90
2017,05,14,00,14,3.30
2017,05,14,00,15,2.70
2017,05,14,00,16,2.60
2017,05,14,00,17,3.00
2017,05,14,00,18,3.10
2017,05,14,00,19,3.00
2017,05,14,00,20,3.30
2017,05,14,00,21,3.20
2017,05,14,00,22,2.60
2017,05,14,00,23,3.30
2017,05,14,00,24,3.70
2017,05,14,00,25,4.30
2017,05,14,00,26,4.60
2017,05,14,00,27,5.40
2017,05,14,00,28,3.60
2017,05,14,00,29,4.00
2017,05,14,00,30,4.10
2017,05,14,00,31,3.10
2017,05,14,00,32,3.20
2017,05,14,00,33,4.50
2017,05,14,00,34,4.10
2017,05,14,00,35,3.70
2017,05,14,00,36,4.30
2017,05,14,00,37,5.20
2017,05,14,00,38,4.00
2017,05,14,00,39,2.70
2017,05,14,00,40,2.40
2017,05,14,00,41,4.10
2017,05,14,00,42,3.70
2017,05,14,00,43,2.40
2017,05,14,00,44,1.10
2017,05,14,00,45,2.40
2017,05,14,00,46,2.30
2017,05,14,00,47,2.00
2017,05,14,00,48,3.30
2017,05,14,00,49,2.40
2017,05,14,00,50,2.40
2017,05,14,00,51,2.70
2017,05,14,00,52,1.30
2017,05,14,00,53,2.40
2017,05,14,00,54,1.60
2017,05,14,00,55,3.40
2017,05,14,00,56,2.70
2017,05,14,00,57,1.70
2017,05,14,00,58,1.10
2017,05,14,00,59,2.90
2017,05,14,01,00,1.30
2017,05,14,01,01,3.20
2017,05,14,01,02,0.70
2017,05,14,01,03,2.20
2017,05,14,01,04,1.70
2017,05,14,01,05,2.10
2017,05,14,01,06,0.50
2017,05,14,01,07,2.00
2017,05,14,01,08,0.70
2017,05,14,01,09,0.70
2017,05,14,01,10,3.40
2017,05,14,01,11,3.90
2017,05,14,01,12,2.70
2017,05,14,01,13,3.20
2017,05,14,01,14,4.30
2017,05,14,01,15,4.50
2017,05,14,01,16,2.90
2017,05,14,01,17,2.40
2017,05,14,01,18,2.50
2017,05,14,01,19,2.60
2017,05,14,01,20,2.70
2017,05,14,01,21,3.70
2017,05,14,01,22,3.50
2017,05,14,01,23,3.40
2017,05,14,01,24,4.00
2017,05,14,01,25,3.20
2017,05,14,01,26,3.20
2017,05,14,01,27,1.70
2017,05,14,01,28,2.80
2017,05,14,01,29,1.10
2017,05,14,01,30,0.70
2017,05,14,01,31,2.80
2017,05,14,01,32,1.90
2017,05,14,01,33,3.10
2017,05,14,01,34,2.90
2017,05,14,01,35,0.70
2017,05,14,01,36,2.90
2017,05,14,01,37,1.10
2017,05,14,01,38,0.10
2017,05,14,01,39,0.10
2017,05,14,01,40,0.40
2017,05,14,01,41,0.70
2017,05,14,01,42,0.50
2017,05,14,01,43,0.40
2017,05,14,01,44,0.10
2017,05,14,01,45,0.30
2017,05,14,01,46,2.60
2017,05,14,01,47,2.30
2017,05,14,01,48,1.50
2017,05,14,01,49,0.00
2017,05,14,01,50,0.00
2017,05,14,01,51,1.90
2017,05,14,01,52,1.50
2017,05,14,01,53,1.80
2017,05,14,01,54,2.40
2017,05,14,01,55,2.80
2017,05,14,01,56,1.80
2017,05,14,01,57,2.00
2017,05,14,01,58,2.70
2017,05,14,01,59,3.80
2017,05,14,02,00,5.10
2017,05,14,02,01,3.40
2017,05,14,02,02,2.10
2017,05,14,02,03,2.30
2017,05,14,02,04,4.00
2017,05,14,02,05,4.00
2017,05,14,02,06,2.00
2017,05,14,02,07,0.80
2017,05,14,02,08,1.80
2017,05,14,02,09,4.10
2017,05,14,02,10,2.30
2017,05,14,02,11,3.00
2017,05,14,02,12,2.10
2017,05,14,02,13,3.30
2017,05,14,02,14,2.40
2017,05,14,02,15,1.80
2017,05,14,02,16,1.10
2017,05,14,02,17,2.10
2017,05,14,02,18,1.60
2017,05,14,02,19,0.10
2017,05,14,02,20,0.00
2017,05,14,02,21,0.00
2017,05,14,02,22,0.20
2017,05,14,02,23,0.00
2017,05,14,02,24,0.00
2017,05,14,02,25,0.10
2017,05,14,02,26,0.60
2017,05,14,02,27,0.50
2017,05,14,02,28,0.10
2017,05,14,02,29,0.00
2017,05,14,02,30,0.00
2017,05,14,02,31,0.00
2017,05,14,02,32,0.00
2017,05,14,02,33,0.00
2017,05,14,02,34,0.00
2017,05,14,02,35,0.00
2017,05,14,02,36,0.00
2017,05,14,02,37,0.00
2017,05,14,02,38,0.00
2017,05,14,02,39,0.00
2017,05,14,02,40,0.00
2017,05,14,02,41,0.00
2017,05,14,02,42,0.00
2017,05,14,02,43,0.80
2017,05,14,02,44,1.40
2017,05,14,02,45,1.20
2017,05,14,02,46,1.90
2017,05,14,02,47,1.50
2017,05,14,02,48,2.20
2017,05,14,02,49,1.90
2017,05,14,02,50,2.30
2017,05,14,02,51,1.30
2017,05,14,02,52,0.00
2017,05,14,02,53,0.00
2017,05,14,02,54,0.00
2017,05,14,02,55,0.00
2017,05,14,02,56,0.50
2017,05,14,02,57,0.80
2017,05,14,02,58,0.10
2017,05,14,02,59,0.00
2017,05,14,03,00,0.00
2017,05,14,03,01,0.00
2017,05,14,03,02,0.40
2017,05,14,03,03,0.40
2017,05,14,03,04,0.00
2017,05,14,03,05,0.00
2017,05,14,03,06,1.40
2017,05,14,03,07,3.20
2017,05,14,03,08,3.20
2017,05,14,03,09,3.20
2017,05,14,03,10,3.20
2017,05,14,03,11,0.20
2017,05,14,03,12,1.90
2017,05,14,03,13,2.40
2017,05,14,03,14,2.10
2017,05,14,03,15,3.50
2017,05,14,03,16,2.30
2017,05,14,03,17,4.30
2017,05,14,03,18,1.90
2017,05,14,03,19,2.80
2017,05,14,03,20,1.40
2017,05,14,03,21,2.10
2017,05,14,03,22,2.80
2017,05,14,03,23,2.10
2017,05,14,03,24,3.70
2017,05,14,03,25,3.60
2017,05,14,03,26,4.40
2017,05,14,03,27,3.30
2017,05,14,03,28,2.60
2017,05,14,03,29,2.70
2017,05,14,03,30,4.00
2017,05,14,03,31,1.30
2017,05,14,03,32,1.70
2017,05,14,03,33,1.40
2017,05,14,03,34,1.30
2017,05,14,03,35,0.50
2017,05,14,03,36,0.70
2017,05,14,03,37,0.00
2017,05,14,03,38,0.00
2017,05,14,03,39,0.00
2017,05,14,03,40,0.00
2017,05,14,03,41,0.00
2017,05,14,03,42,0.00
2017,05,14,03,43,0.00
2017,05,14,03,44,0.00
2017,05,14,03,45,0.00
2017,05,14,03,46,0.00
2017,05,14,03,47,0.00
2017,05,14,03,48,0.00
2017,05,14,03,49,0.10
2017,05,14,03,50,0.50
2017,05,14,03,51,0.20
2017,05,14,03,52,0.00
2017,05,14,03,53,0.70
2017,05,14,03,54,1.00
2017,05,14,03,55,0.00
2017,05,14,03,56,0.00
2017,05,14,03,57,0.00
2017,05,14,03,58,0.20
2017,05,14,03,59,1.20
2017,05,14,04,00,1.60
2017,05,14,04,01,3.50
2017,05,14,04,02,2.60
2017,05,14,04,03,3.00
2017,05,14,04,04,3.00
2017,05,14,04,05,2.80
2017,05,14,04,06,2.40
2017,05,14,04,07,2.50
2017,05,14,04,08,2.70
2017,05,14,04,09,2.30
2017,05,14,04,10,2.90
2017,05,14,04,11,3.30
2017,05,14,04,12,3.40
2017,05,14,04,13,3.20
2017,05,14,04,14,3.10
2017,05,14,04,15,3.90
2017,05,14,04,16,4.20
2017,05,14,04,17,3.00
2017,05,14,04,18,3.20
2017,05,14,04,19,3.90
2017,05,14,04,20,4.30
2017,05,14,04,21,3.70
2017,05,14,04,22,3.70
2017,05,14,04,23,2.70
2017,05,14,04,24,3.00
2017,05,14,04,25,2.80
2017,05,14,04,26,3.40
2017,05,14,04,27,2.90
2017,05,14,04,28,2.70
2017,05,14,04,29,1.90
2017,05,14,04,30,1.60
2017,05,14,04,31,1.10
2017,05,14,04,32,2.10
2017,05,14,04,33,1.70
2017,05,14,04,34,1.60
2017,05,14,04,35,1.70
2017,05,14,04,36,2.30
2017,05,14,04,37,1.60
2017,05,14,04,38,1.40
2017,05,14,04,39,1.60
2017,05,14,04,40,1.40
2017,05,14,04,41,0.80
2017,05,14,04,42,1.40
2017,05,14,04,43,0.30
2017,05,14,04,44,0.80
2017,05,14,04,45,1.80
2017,05,14,04,46,0.70
2017,05,14,04,47,1.40
2017,05,14,04,48,1.40
2017,05,14,04,49,1.80
2017,05,14,04,50,1.40
2017,05,14,04,51,1.40
2017,05,14,04,52,2.10
2017,05,14,04,53,1.30
2017,05,14,04,54,2.00
2017,05,14,04,55,1.90
2017,05,14,04,56,1.60
2017,05,14,04,57,2.00
2017,05,14,04,58,1.40
2017,05,14,04,59,1.00
2017,05,14,05,00,1.20
2017,05,14,05,01,0.80
2017,05,14,05,02,1.00
2017,05,14,05,03,1.90
2017,05,14,05,04,2.30
2017,05,14,05,05,2.40
2017,05,14,05,06,2.40
2017,05,14,05,07,2.80
2017,05,14,05,08,3.40
2017,05,14,05,09,3.30
2017,05,14,05,10,3.90
2017,05,14,05,11,2.90
2017,05,14,05,12,3.00
2017,05,14,05,13,2.60
2017,05,14,05,14,3.00
2017,05,14,05,15,3.70
2017,05,14,05,16,3.80
2017,05,14,05,17,3.40
2017,05,14,05,18,3.00
2017,05,14,05,19,4.20
2017,05,14,05,20,3.90
2017,05,14,05,21,4.10
2017,05,14,05,22,4.20
2017,05,14,05,23,3.70
2017,05,14,05,24,3.60
2017,05,14,05,25,2.60
2017,05,14,05,26,2.20
2017,05,14,05,27,2.40
2017,05,14,05,28,2.80
2017,05,14,05,29,2.60
2017,05,14,05,30,2.40
2017,05,14,05,31,2.30
2017,05,14,05,32,3.30
2017,05,14,05,33,3.30
2017,05,14,05,34,3.20
2017,05,14,05,35,2.80
2017,05,14,05,36,2.60
2017,05,14,05,37,3.00
2017,05,14,05,38,2.50
2017,05,14,05,39,2.40
2017,05,14,05,40,2.40
2017,05,14,05,41,1.90
2017,05,14,05,42,1.90
2017,05,14,05,43,2.90
2017,05,14,05,44,3.10
2017,05,14,05,45,3.30
2017,05,14,05,46,2.40
2017,05,14,05,47,3.10
2017,05,14,05,48,2.40
2017,05,14,05,49,2.90
2017,05,14,05,50,3.40
2017,05,14,05,51,2.90
2017,05,14,05,52,3.10
2017,05,14,05,53,3.30
2017,05,14,05,54,2.90
2017,05,14,05,55,2.90
2017,05,14,05,56,2.90
2017,05,14,05,57,2.50
2017,05,14,05,58,0.70
2017,05,14,05,59,0.00
2017,05,14,06,00,0.10
2017,05,14,06,01,0.00
2017,05,14,06,02,0.00
2017,05,14,06,03,0.00
2017,05,14,06,04,0.00
2017,05,14,06,05,0.10
2017,05,14,06,06,0.00
2017,05,14,06,07,0.00
2017,05,14,06,08,1.70
2017,05,14,06,09,3.10
2017,05,14,06,10,3.10
2017,05,14,06,11,3.60
2017,05,14,06,12,3.70
2017,05,14,06,13,4.10
2017,05,14,06,14,3.70
2017,05,14,06,15,3.30
2017,05,14,06,16,3.10
2017,05,14,06,17,2.40
2017,05,14,06,18,2.00
2017,05,14,06,19,1.80
2017,05,14,06,20,0.70
2017,05,14,06,21,0.00
2017,05,14,06,22,0.00
2017,05,14,06,23,0.80
2017,05,14,06,24,0.10
2017,05,14,06,25,0.00
2017,05,14,06,26,0.00
2017,05,14,06,27,0.00
2017,05,14,06,28,0.00
2017,05,14,06,29,0.00
2017,05,14,06,30,0.00
2017,05,14,06,31,0.00
2017,05,14,06,32,0.00
2017,05,14,06,33,0.00
2017,05,14,06,34,0.00
2017,05,14,06,35,0.00
2017,05,14,06,36,0.00
2017,05,14,06,37,0.00
2017,05,14,06,38,0.00
2017,05,14,06,39,0.00
2017,05,14,06,40,0.00
2017,05,14,06,41,0.00
2017,05,14,06,42,0.00
2017,05,14,06,43,0.00
2017,05,14,06,44,0.00
2017,05,14,06,45,0.00
2017,05,14,06,46,1.50
2017,05,14,06,47,3.10
2017,05,14,06,48,3.10
2017,05,14,06,49,3.30
2017,05,14,06,50,3.30
2017,05,14,06,51,3.20
2017,05,14,06,52,2.50
2017,05,14,06,53,3.90
2017,05,14,06,54,4.10
2017,05,14,06,55,4.00
2017,05,14,06,56,4.30
2017,05,14,06,57,3.70
2017,05,14,06,58,4.70
2017,05,14,06,59,4.30
2017,05,14,07,00,4.90
2017,05,14,07,01,5.30
2017,05,14,07,02,4.50
2017,05,14,07,03,4.60
2017,05,14,07,04,3.10
2017,05,14,07,05,3.60
2017,05,14,07,06,4.90
2017,05,14,07,07,3.70
2017,05,14,07,08,3.40
2017,05,14,07,09,3.80
2017,05,14,07,10,4.80
2017,05,14,07,11,4.30
2017,05,14,07,12,4.00
2017,05,14,07,13,4.10
2017,05,14,07,14,4.20
2017,05,14,07,15,3.70
2017,05,14,07,16,3.90
2017,05,14,07,17,3.90
2017,05,14,07,18,3.20
2017,05,14,07,19,4.80
2017,05,14,07,20,5.40
2017,05,14,07,21,3.20
2017,05,14,07,22,5.00
2017,05,14,07,23,4.20
2017,05,14,07,24,4.10
2017,05,14,07,25,5.20
2017,05,14,07,26,5.00
2017,05,14,07,27,5.20
2017,05,14,07,28,4.70
2017,05,14,07,29,4.20
2017,05,14,07,30,5.60
2017,05,14,07,31,5.60
2017,05,14,07,32,5.40
2017,05,14,07,33,3.20
2017,05,14,07,34,3.50
2017,05,14,07,35,3.70
2017,05,14,07,36,4.20
2017,05,14,07,37,3.30
2017,05,14,07,38,2.50
2017,05,14,07,39,1.70
2017,05,14,07,40,1.10
2017,05,14,07,41,1.20
2017,05,14,07,42,2.60
2017,05,14,07,43,3.70
2017,05,14,07,44,1.60
2017,05,14,07,45,1.90
2017,05,14,07,46,1.40
2017,05,14,07,47,1.60
2017,05,14,07,48,1.40
2017,05,14,07,49,0.20
2017,05,14,07,50,1.40
2017,05,14,07,51,3.90
2017,05,14,07,52,4.50
2017,05,14,07,53,4.00
2017,05,14,07,54,3.10
2017,05,14,07,55,3.80
2017,05,14,07,56,4.40
2017,05,14,07,57,4.40
2017,05,14,07,58,6.70
2017,05,14,07,59,6.10
2017,05,14,08,00,4.80
2017,05,14,08,01,5.80
2017,05,14,08,02,4.90
2017,05,14,08,03,4.50
2017,05,14,08,04,3.40
2017,05,14,08,05,8.90
2017,05,14,08,06,5.50
2017,05,14,08,07,5.40
2017,05,14,08,08,5.60
2017,05,14,08,09,5.40
2017,05,14,08,10,5.50
2017,05,14,08,11,4.40
2017,05,14,08,12,3.00
2017,05,14,08,13,3.40
2017,05,14,08,14,2.60
2017,05,14,08,15,1.70
2017,05,14,08,16,2.90
2017,05,14,08,17,3.60
2017,05,14,08,18,3.30
2017,05,14,08,19,4.70
2017,05,14,08,20,4.40
2017,05,14,08,21,3.70
2017,05,14,08,22,3.40
2017,05,14,08,23,1.20
2017,05,14,08,24,3.90
2017,05,14,08,25,3.90
2017,05,14,08,26,3.10
2017,05,14,08,27,2.80
2017,05,14,08,28,1.30
2017,05,14,08,29,4.20
2017,05,14,08,30,3.90
2017,05,14,08,31,3.00
2017,05,14,08,32,2.10
2017,05,14,08,33,3.30
2017,05,14,08,34,2.70
2017,05,14,08,35,2.10
2017,05,14,08,36,4.70
2017,05,14,08,37,3.60
2017,05,14,08,38,4.00
2017,05,14,08,39,4.90
2017,05,14,08,40,2.90
2017,05,14,08,41,2.00
2017,05,14,08,42,3.70
2017,05,14,08,43,3.60
2017,05,14,08,44,5.20
2017,05,14,08,45,4.60
2017,05,14,08,46,2.70
2017,05,14,08,47,3.40
2017,05,14,08,48,3.70
2017,05,14,08,49,4.70
2017,05,14,08,50,5.40
2017,05,14,08,51,5.60
2017,05,14,08,52,5.20
2017,05,14,08,53,5.20
2017,05,14,08,54,5.20
2017,05,14,08,55,6.60
2017,05,14,08,56,5.00
2017,05,14,08,57,3.40
2017,05,14,08,58,5.10
2017,05,14,08,59,5.80
2017,05,14,09,00,4.30
2017,05,14,09,01,5.20
2017,05,14,09,02,4.80
2017,05,14,09,03,3.60
2017,05,14,09,04,4.90
2017,05,14,09,05,2.90
2017,05,14,09,06,4.10
2017,05,14,09,07,6.50
2017,05,14,09,08,5.50
2017,05,14,09,09,4.20
2017,05,14,09,10,4.50
2017,05,14,09,11,3.90
2017,05,14,09,12,0.80
2017,05,14,09,13,2.60
2017,05,14,09,14,4.40
2017,05,14,09,15,3.60
2017,05,14,09,16,2.80
2017,05,14,09,17,2.00
2017,05,14,09,18,1.60
2017,05,14,09,19,6.90
2017,05,14,09,20,5.50
2017,05,14,09,21,3.90
2017,05,14,09,22,5.60
2017,05,14,09,23,5.40
2017,05,14,09,24,3.30
2017,05,14,09,25,1.10
2017,05,14,09,26,2.70
2017,05,14,09,27,3.30
2017,05,14,09,28,3.40
2017,05,14,09,29,3.40
2017,05,14,09,30,4.90
2017,05,14,09,31,6.10
2017,05,14,09,32,5.50
2017,05,14,09,33,4.50
2017,05,14,09,34,3.20
2017,05,14,09,35,3.60
2017,05,14,09,36,3.90
2017,05,14,09,37,4.90
2017,05,14,09,38,5.00
2017,05,14,09,39,3.30
2017,05,14,09,40,3.20
2017,05,14,09,41,0.10
2017,05,14,09,42,0.30
2017,05,14,09,43,2.40
2017,05,14,09,44,3.90
2017,05,14,09,45,3.20
2017,05,14,09,46,2.10
2017,05,14,09,47,0.50
2017,05,14,09,48,1.20
2017,05,14,09,49,3.20
2017,05,14,09,50,3.00
2017,05,14,09,51,1.90
2017,05,14,09,52,1.90
2017,05,14,09,53,1.50
2017,05,14,09,54,3.20
2017,05,14,09,55,2.70
2017,05,14,09,56,2.20
2017,05,14,09,57,0.80
2017,05,14,09,58,2.60
2017,05,14,09,59,4.20
2017,05,14,10,00,2.40
2017,05,14,10,01,2.10
2017,05,14,10,02,3.60
2017,05,14,10,03,3.00
2017,05,14,10,04,3.50
2017,05,14,10,05,1.30
2017,05,14,10,06,1.60
2017,05,14,10,07,3.30
2017,05,14,10,08,3.00
2017,05,14,10,09,2.60
2017,05,14,10,10,0.90
2017,05,14,10,11,3.10
2017,05,14,10,12,3.70
2017,05,14,10,13,0.90
2017,05,14,10,14,2.10
2017,05,14,10,15,4.40
2017,05,14,10,16,4.80
2017,05,14,10,17,4.90
2017,05,14,10,18,5.40
2017,05,14,10,19,5.20
2017,05,14,10,20,7.30
2017,05,14,10,21,5.90
2017,05,14,10,22,7.90
2017,05,14,10,23,8.20
2017,05,14,10,24,5.50
2017,05,14,10,25,5.70
2017,05,14,10,26,3.50
2017,05,14,10,27,0.80
2017,05,14,10,28,3.00
2017,05,14,10,29,4.50
2017,05,14,10,30,3.30
2017,05,14,10,31,8.20
2017,05,14,10,32,7.80
2017,05,14,10,33,6.70
2017,05,14,10,34,3.70
2017,05,14,10,35,5.40
2017,05,14,10,36,6.40
2017,05,14,10,37,8.30
2017,05,14,10,38,7.20
2017,05,14,10,39,4.50
2017,05,14,10,40,5.00
2017,05,14,10,41,4.10
2017,05,14,10,42,6.00
2017,05,14,10,43,8.50
2017,05,14,10,44,5.50
2017,05,14,10,45,6.20
2017,05,14,10,46,6.70
2017,05,14,10,47,7.80
2017,05,14,10,48,7.00
2017,05,14,10,49,6.50
2017,05,14,10,50,5.10
2017,05,14,10,51,4.90
2017,05,14,10,52,4.40
2017,05,14,10,53,8.80
2017,05,14,10,54,5.70
2017,05,14,10,55,5.40
2017,05,14,10,56,5.30
2017,05,14,10,57,4.60
2017,05,14,10,58,8.10
2017,05,14,10,59,5.40
2017,05,14,11,00,7.30
2017,05,14,11,01,9.10
2017,05,14,11,02,6.40
2017,05,14,11,03,7.80
2017,05,14,11,04,7.10
2017,05,14,11,05,9.20
2017,05,14,11,06,7.80
2017,05,14,11,07,8.60
2017,05,14,11,08,12.00
2017,05,14,11,09,9.80
2017,05,14,11,10,11.40
2017,05,14,11,11,11.10
2017,05,14,11,12,11.20
2017,05,14,11,13,10.70
2017,05,14,11,14,7.20
2017,05,14,11,15,5.70
2017,05,14,11,16,7.60
2017,05,14,11,17,10.10
2017,05,14,11,18,7.90
2017,05,14,11,19,7.40
2017,05,14,11,20,10.50
2017,05,14,11,21,7.30
2017,05,14,11,22,5.90
2017,05,14,11,23,4.20
2017,05,14,11,24,5.30
2017,05,14,11,25,3.10
2017,05,14,11,26,6.20
2017,05,14,11,27,7.90
2017,05,14,11,28,9.80
2017,05,14,11,29,6.60
2017,05,14,11,30,4.60
2017,05,14,11,31,6.30
2017,05,14,11,32,6.30
2017,05,14,11,33,5.20
2017,05,14,11,34,3.70
2017,05,14,11,35,4.90
2017,05,14,11,36,5.50
2017,05,14,11,37,8.60
2017,05,14,11,38,11.00
2017,05,14,11,39,8.70
2017,05,14,11,40,8.60
2017,05,14,11,41,9.10
2017,05,14,11,42,7.30
2017,05,14,11,43,5.60
2017,05,14,11,44,8.10
2017,05,14,11,45,6.90
2017,05,14,11,46,10.10
2017,05,14,11,47,7.20
2017,05,14,11,48,8.90
2017,05,14,11,49,6.40
2017,05,14,11,50,7.40
2017,05,14,11,51,6.60
2017,05,14,11,52,8.90
2017,05,14,11,53,5.40
2017,05,14,11,54,6.30
2017,05,14,11,55,5.70
2017,05,14,11,56,5.80
2017,05,14,11,57,8.10
2017,05,14,11,58,8.40
2017,05,14,11,59,9.40
2017,05,14,12,00,4.80
2017,05,14,12,01,5.30
2017,05,14,12,02,15.10
2017,05,14,12,03,12.50
2017,05,14,12,04,8.30
2017,05,14,12,05,7.30
2017,05,14,12,06,7.40
2017,05,14,12,07,7.50
2017,05,14,12,08,10.70
2017,05,14,12,09,7.90
2017,05,14,12,10,10.00
2017,05,14,12,11,7.60
2017,05,14,12,12,10.30
2017,05,14,12,13,7.20
2017,05,14,12,14,8.60
2017,05,14,12,15,5.90
2017,05,14,12,16,8.10
2017,05,14,12,17,5.60
2017,05,14,12,18,5.90
2017,05,14,12,19,7.20
2017,05,14,12,20,9.40
2017,05,14,12,21,6.40
2017,05,14,12,22,6.40
2017,05,14,12,23,5.40
2017,05,14,12,24,10.50
2017,05,14,12,25,5.90
2017,05,14,12,26,7.80
2017,05,14,12,27,8.30
2017,05,14,12,28,8.60
2017,05,14,12,29,8.10
2017,05,14,12,30,5.80
2017,05,14,12,31,6.80
2017,05,14,12,32,5.10
2017,05,14,12,33,7.90
2017,05,14,12,34,9.50
2017,05,14,12,35,8.10
2017,05,14,12,36,9.30
2017,05,14,12,37,7.60
2017,05,14,12,38,8.70
2017,05,14,12,39,5.70
2017,05,14,12,40,6.30
2017,05,14,12,41,5.60
2017,05,14,12,42,4.80
2017,05,14,12,43,4.80
2017,05,14,12,44,9.10
2017,05,14,12,45,9.20
2017,05,14,12,46,7.20
2017,05,14,12,47,6.70
2017,05,14,12,48,7.70
2017,05,14,12,49,7.80
2017,05,14,12,50,8.80
2017,05,14,12,51,8.30
2017,05,14,12,52,7.90
2017,05,14,12,53,5.70
2017,05,14,12,54,6.90
2017,05,14,12,55,8.20
2017,05,14,12,56,6.70
2017,05,14,12,57,4.90
2017,05,14,12,58,7.30
2017,05,14,12,59,6.70
2017,05,14,13,00,8.40
2017,05,14,13,01,5.00
2017,05,14,13,02,7.60
2017,05,14,13,03,5.40
2017,05,14,13,04,9.70
2017,05,14,13,05,10.80
2017,05,14,13,06,12.30
2017,05,14,13,07,10.90
2017,05,14,13,08,8.10
2017,05,14,13,09,8.20
2017,05,14,13,10,7.90
2017,05,14,13,11,5.90
2017,05,14,13,12,5.10
2017,05,14,13,13,5.10
2017,05,14,13,14,3.70
2017,05,14,13,15,4.20
2017,05,14,13,16,4.50
2017,05,14,13,17,6.40
2017,05,14,13,18,7.00
2017,05,14,13,19,8.90
2017,05,14,13,20,10.40
2017,05,14,13,21,7.60
2017,05,14,13,22,6.40
2017,05,14,13,23,6.30
2017,05,14,13,24,8.10
2017,05,14,13,25,9.80
2017,05,14,13,26,10.10
2017,05,14,13,27,6.40
2017,05,14,13,28,8.50
2017,05,14,13,29,11.90
2017,05,14,13,30,9.40
2017,05,14,13,31,10.20
2017,05,14,13,32,4.70
2017,05,14,13,33,11.80
2017,05,14,13,34,11.40
2017,05,14,13,35,7.70
2017,05,14,13,36,7.90
2017,05,14,13,37,11.60
2017,05,14,13,38,12.50
2017,05,14,13,39,8.50
2017,05,14,13,40,9.40
2017,05,14,13,41,8.90
2017,05,14,13,42,10.10
2017,05,14,13,43,9.60
2017,05,14,13,44,6.30
2017,05,14,13,45,8.50
2017,05,14,13,46,9.80
2017,05,14,13,47,11.50
2017,05,14,13,48,9.00
2017,05,14,13,49,11.90
2017,05,14,13,50,7.50
2017,05,14,13,51,10.80
2017,05,14,13,52,11.80
2017,05,14,13,53,11.40
2017,05,14,13,54,14.90
2017,05,14,13,55,11.80
2017,05,14,13,56,12.30
2017,05,14,13,57,12.60
2017,05,14,13,58,12.70
2017,05,14,13,59,9.00
2017,05,14,14,00,9.20
2017,05,14,14,01,13.30
2017,05,14,14,02,13.80
2017,05,14,14,03,10.40
2017,05,14,14,04,12.80
2017,05,14,14,05,13.50
2017,05,14,14,06,13.20
2017,05,14,14,07,9.40
2017,05,14,14,08,12.00
2017,05,14,14,09,15.00
2017,05,14,14,10,13.30
2017,05,14,14,11,13.40
2017,05,14,14,12,14.60
2017,05,14,14,13,12.60
2017,05,14,14,14,11.90
2017,05,14,14,15,11.80
2017,05,14,14,16,10.80
2017,05,14,14,17,13.70
2017,05,14,14,18,11.70
2017,05,14,14,19,10.80
2017,05,14,14,20,13.40
2017,05,14,14,21,12.70
2017,05,14,14,22,12.00
2017,05,14,14,23,10.80
2017,05,14,14,24,9.00
2017,05,14,14,25,13.40
2017,05,14,14,26,11.60
2017,05,14,14,27,10.90
2017,05,14,14,28,10.40
2017,05,14,14,29,10.10
2017,05,14,14,30,9.40
2017,05,14,14,31,7.40
2017,05,14,14,32,8.80
2017,05,14,14,33,7.80
2017,05,14,14,34,9.90
2017,05,14,14,35,10.20
2017,05,14,14,36,10.00
2017,05,14,14,37,6.20
2017,05,14,14,38,7.40
2017,05,14,14,39,9.00
2017,05,14,14,40,7.80
2017,05,14,14,41,5.50
2017,05,14,14,42,9.10
2017,05,14,14,43,5.70
2017,05,14,14,44,3.20
2017,05,14,14,45,4.90
2017,05,14,14,46,5.60
2017,05,14,14,47,5.30
2017,05,14,14,48,5.50
2017,05,14,14,49,5.50
2017,05,14,14,50,2.60
2017,05,14,14,51,3.50
2017,05,14,14,52,4.50
2017,05,14,14,53,4.20
2017,05,14,14,54,3.70
2017,05,14,14,55,3.30
2017,05,14,14,56,3.30
2017,05,14,14,57,3.60
2017,05,14,14,58,1.40
2017,05,14,14,59,1.90
2017,05,14,15,00,1.00
2017,05,14,15,01,2.90
2017,05,14,15,02,1.80
2017,05,14,15,03,1.70
2017,05,14,15,04,1.10
2017,05,14,15,05,0.20
2017,05,14,15,06,0.00
2017,05,14,15,07,0.00
2017,05,14,15,08,0.00
2017,05,14,15,09,0.00
2017,05,14,15,10,0.00
2017,05,14,15,11,0.00
2017,05,14,15,12,0.00
2017,05,14,15,13,0.00
2017,05,14,15,14,0.00
2017,05,14,15,15,0.00
2017,05,14,15,16,3.00
2017,05,14,15,17,4.50
2017,05,14,15,18,4.60
2017,05,14,15,19,4.60
2017,05,14,15,20,4.30
2017,05,14,15,21,4.60
2017,05,14,15,22,3.70
2017,05,14,15,23,2.90
2017,05,14,15,24,1.00
2017,05,14,15,25,2.00
2017,05,14,15,26,2.40
2017,05,14,15,27,2.90
2017,05,14,15,28,3.40
2017,05,14,15,29,4.40
2017,05,14,15,30,4.60
2017,05,14,15,31,4.90
2017,05,14,15,32,4.60
2017,05,14,15,33,6.60
2017,05,14,15,34,8.20
2017,05,14,15,35,5.20
2017,05,14,15,36,8.70
2017,05,14,15,37,9.70
2017,05,14,15,38,11.70
2017,05,14,15,39,10.40
2017,05,14,15,40,7.20
2017,05,14,15,41,7.70
2017,05,14,15,42,10.60
2017,05,14,15,43,7.10
2017,05,14,15,44,8.00
2017,05,14,15,45,7.80
2017,05,14,15,46,7.10
2017,05,14,15,47,9.40
2017,05,14,15,48,7.80
2017,05,14,15,49,8.80
2017,05,14,15,50,10.90
2017,05,14,15,51,7.70
2017,05,14,15,52,8.80
2017,05,14,15,53,7.90
2017,05,14,15,54,10.50
2017,05,14,15,55,11.00
2017,05,14,15,56,11.30
2017,05,14,15,57,10.70
2017,05,14,15,58,7.70
2017,05,14,15,59,9.40
2017,05,14,16,00,7.10
2017,05,14,16,01,9.10
2017,05,14,16,02,10.60
2017,05,14,16,03,9.10
2017,05,14,16,04,7.00
2017,05,14,16,05,5.40
2017,05,14,16,06,9.70
2017,05,14,16,07,7.30
2017,05,14,16,08,9.30
2017,05,14,16,09,10.10
2017,05,14,16,10,10.80
2017,05,14,16,11,13.00
2017,05,14,16,12,10.70
2017,05,14,16,13,9.20
2017,05,14,16,14,6.30
2017,05,14,16,15,7.60
2017,05,14,16,16,6.90
2017,05,14,16,17,9.20
2017,05,14,16,18,10.30
2017,05,14,16,19,9.70
2017,05,14,16,20,9.80
2017,05,14,16,21,7.00
2017,05,14,16,22,11.50
2017,05,14,16,23,10.90
2017,05,14,16,24,9.00
2017,05,14,16,25,7.90
2017,05,14,16,26,7.80
2017,05,14,16,27,8.10
2017,05,14,16,28,6.10
2017,05,14,16,29,6.90
2017,05,14,16,30,7.60
2017,05,14,16,31,9.50
2017,05,14,16,32,8.50
2017,05,14,16,33,7.60
2017,05,14,16,34,5.40
2017,05,14,16,35,9.40
2017,05,14,16,36,8.40
2017,05,14,16,37,11.40
2017,05,14,16,38,8.10
2017,05,14,16,39,5.70
2017,05,14,16,40,6.60
2017,05,14,16,41,10.70
2017,05,14,16,42,6.60
2017,05,14,16,43,5.90
2017,05,14,16,44,5.50
2017,05,14,16,45,9.50
2017,05,14,16,46,8.60
2017,05,14,16,47,11.90
2017,05,14,16,48,11.00
2017,05,14,16,49,10.30
2017,05,14,16,50,10.20
2017,05,14,16,51,10.10
2017,05,14,16,52,8.60
2017,05,14,16,53,7.30
2017,05,14,16,54,7.20
2017,05,14,16,55,6.70
2017,05,14,16,56,7.50
2017,05,14,16,57,8.10
2017,05,14,16,58,7.90
2017,05,14,16,59,5.80
2017,05,14,17,00,7.30
2017,05,14,17,01,8.20
2017,05,14,17,02,5.70
2017,05,14,17,03,7.60
2017,05,14,17,04,8.00
2017,05,14,17,05,7.70
2017,05,14,17,06,5.60
2017,05,14,17,07,6.60
2017,05,14,17,08,8.20
2017,05,14,17,09,11.80
2017,05,14,17,10,8.20
2017,05,14,17,11,9.40
2017,05,14,17,12,8.70
2017,05,14,17,13,6.10
2017,05,14,17,14,5.30
2017,05,14,17,15,7.80
2017,05,14,17,16,8.30
2017,05,14,17,17,10.10
2017,05,14,17,18,11.10
2017,05,14,17,19,9.10
2017,05,14,17,20,9.40
2017,05,14,17,21,10.10
2017,05,14,17,22,11.80
2017,05,14,17,23,9.50
2017,05,14,17,24,10.90
2017,05,14,17,25,7.80
2017,05,14,17,26,10.30
2017,05,14,17,27,11.00
2017,05,14,17,28,11.00
2017,05,14,17,29,11.00
2017,05,14,17,30,12.40
2017,05,14,17,31,10.40
2017,05,14,17,32,11.10
2017,05,14,17,33,12.60
2017,05,14,17,34,11.00
2017,05,14,17,35,11.40
2017,05,14,17,36,7.00
2017,05,14,17,37,7.80
2017,05,14,17,38,11.10
2017,05,14,17,39,9.20
2017,05,14,17,40,10.90
2017,05,14,17,41,9.30
2017,05,14,17,42,9.80
2017,05,14,17,43,9.90
2017,05,14,17,44,10.50
2017,05,14,17,45,7.40
2017,05,14,17,46,6.70
2017,05,14,17,47,6.30
2017,05,14,17,48,9.80
2017,05,14,17,49,12.00
2017,05,14,17,50,7.10
2017,05,14,17,51,8.20
2017,05,14,17,52,8.00
2017,05,14,17,53,7.10
2017,05,14,17,54,6.90
2017,05,14,17,55,4.60
2017,05,14,17,56,6.00
2017,05,14,17,57,4.20
2017,05,14,17,58,4.00
2017,05,14,17,59,6.40
2017,05,14,18,00,8.90
2017,05,14,18,01,7.70